Simultaneous Nadir Overpasses (SNOs) Predictions

Prediction of SNOs between AQUA and NOAA-19 Satellite Orbit:

Table of predicted SNOs for the next 14.0 days since TLE Epoch: 7/5/2015
Index Date (AQUA) Time (AQUA) Lat,Lon (AQUA) SZA (AQUA ) Date (NOAA-19) Time (NOAA-19) Lat,Lon (NOAA-19) SZA (NOAA-19 ) Distance(km) Time Diff (sec)
1 07/07/2015 04:50:59 -80.12,-104.09 120.87 07/07/2015 04:50:57 -80.11,-104.00 120.88 2.00 2
2 07/09/2015 09:35:18 -80.20,-175.89 120.48 07/09/2015 09:34:21 -80.20,-175.97 120.44 1.67 57
3 07/09/2015 10:24:42 80.10, -7.34 59.35 07/09/2015 10:25:20 80.09, -7.32 59.34 0.41 38
4 07/11/2015 15:08:59 80.16, -78.93 59.74 07/11/2015 15:08:41 80.15, -78.89 59.74 0.83 18
5 07/11/2015 15:58:05 -79.44, 94.26 121.40 07/11/2015 15:59:19 -79.57, 94.81 121.36 18.23 74
6 07/13/2015 19:53:19 80.29,-151.22 60.28 07/13/2015 19:52:05 80.26,-151.14 60.29 3.35 74
7 07/13/2015 20:42:40 -80.12, 17.96 120.01 07/13/2015 20:42:59 -80.11, 18.12 120.04 3.21 19
8 07/16/2015 01:26:58 -80.19, -53.77 119.54 07/16/2015 01:26:22 -80.18, -53.63 119.54 2.75 36
9 07/16/2015 02:16:22 80.10, 114.71 60.31 07/16/2015 02:17:20 80.10, 114.75 60.28 0.89 58




NCC Satellite Simultaneous Nadir Overpasses (SNOs) Prediction Service
